Weather History for Sioux City, IA

Change the Weather History Date:

Sunday, March 23, 2014

  Actual Average Record
Temperature  
Mean Temperature 23 °F 40 °F  
Max Temperature 39 °F 51 °F 88 °F (1910)
Min Temperature 6 °F 28 °F 1 °F (1899)
Degree Days  
Heating Degree Days 42 25  
Month to date heating degree days 771 696  
Since 1 July heating degree days 6375 5990  
Cooling Degree Days 0 0  
Month to date cooling degree days 0 0  
Year to date cooling degree days 0 0  
Moisture  
Dew Point 8 °F    
Average Humidity 55    
Maximum Humidity 83    
Minimum Humidity 27    
Precipitation  
Precipitation 0.00 in 0.07 in 1.66 in (1987)
Month to date precipitation 0.31 1.33  
Year to date precipitation 1.08 2.62  
Snow  
Snow 0.00 in 0.20 in 3.50 in (1906)
Month to date snowfall 4.6 5.2  
Since 1 July snowfall 18.4 31.7  
Snow Depth 0.00 in    
Sea Level Pressure  
Sea Level Pressure 30.48 in    
Wind  
Wind Speed 5 mph (South)    
Max Wind Speed 13 mph    
Max Gust Speed 24 mph    
Visibility 10 miles    
Events      
T = Trace of Precipitation, MM = Missing Value Source: NWS Daily Summary

Daily Weather History Graph

Daily Weather History Graph

Search for Another Location

Airport:

Trip Planner

Search our weather history database for the weather conditions in past years. The results will help you decide how hot, cold, wet, or windy it might be!

Date:

Astronomy

Mar. 23, 2014 Rise Set
Actual Time 7:23 AM CDT 7:41 PM CDT
Civil Twilight 6:55 AM CDT 8:09 PM CDT
Nautical Twilight 6:22 AM CDT 8:42 PM CDT
Astronomical Twilight 5:48 AM CDT 9:16 PM CDT
Moon 2:04 AM CDT (3/23) 12:00 PM CDT (3/23)
Length of Visible Light 13h 13m
Length of Day
12h 17m
Waning Gibbous, 54% of the Moon is Illuminated
Mar 23
Waning Gibbous
Mar 23
Last Quarter
Mar 30
New
Apr 7
First Quarter
Apr 15
Full

Hourly Weather History & Observations

Time (CDT) Temp. Windchill Dew Point Humidity Pressure Visibility Wind Dir Wind Speed Gust Speed Precip Events Conditions
12:52 AM 18.0 °F 12.7 °F 7.0 °F 62% 30.58 in 10.0 mi NNW 3.5 mph - N/A   Clear
1:52 AM 14.0 °F 6.5 °F 5.0 °F 67% 30.59 in 10.0 mi WNW 4.6 mph - N/A   Clear
2:52 AM 16.0 °F - 7.0 °F 68% 30.60 in 10.0 mi Calm Calm - N/A   Clear
3:52 AM 10.9 °F - 3.9 °F 73% 30.59 in 10.0 mi Calm Calm - N/A   Clear
4:52 AM 9.0 °F 2.4 °F 3.9 °F 80% 30.59 in 10.0 mi WNW 3.5 mph - N/A   Clear
5:52 AM 10.9 °F - 5.0 °F 77% 30.59 in 10.0 mi Calm Calm - N/A   Clear
6:52 AM 10.0 °F - 6.1 °F 84% 30.59 in 10.0 mi Calm Calm - N/A   Clear
7:52 AM 10.9 °F 4.7 °F 6.1 °F 81% 30.58 in 10.0 mi ESE 3.5 mph - N/A   Clear
8:52 AM 16.0 °F - 10.0 °F 77% 30.58 in 10.0 mi Calm Calm - N/A   Clear
9:52 AM 23.0 °F 15.8 °F 12.0 °F 63% 30.58 in 10.0 mi SSE 5.8 mph - N/A   Clear
10:52 AM 28.0 °F 24.2 °F 9.0 °F 45% 30.56 in 10.0 mi West 3.5 mph - N/A   Clear
11:52 AM 30.9 °F 22.8 °F 6.1 °F 35% 30.55 in 10.0 mi WSW 9.2 mph - N/A   Clear
12:52 PM 32.0 °F - 6.1 °F 34% 30.51 in 10.0 mi Calm Calm - N/A   Clear
1:52 PM 35.1 °F 27.4 °F 6.1 °F 30% 30.48 in 10.0 mi South 10.4 mph - N/A   Clear
2:52 PM 37.0 °F - 6.1 °F 28% 30.43 in 10.0 mi North - - N/A   Clear
3:52 PM 37.9 °F - 8.1 °F 29% 30.39 in 10.0 mi North - - N/A   Clear
4:52 PM 37.9 °F 30.9 °F 8.1 °F 29% 30.36 in 10.0 mi South 10.4 mph 16.1 mph N/A   Scattered Clouds
5:52 PM 37.9 °F 32.1 °F 8.1 °F 29% 30.34 in 10.0 mi South 8.1 mph - N/A   Overcast
6:52 PM 37.0 °F 31.0 °F 9.0 °F 31% 30.33 in 10.0 mi SSE 8.1 mph - N/A   Overcast
7:52 PM 36.0 °F 29.6 °F 9.0 °F 33% 30.32 in 10.0 mi SE 8.1 mph - N/A   Overcast
8:52 PM 35.1 °F 29.3 °F 10.0 °F 35% 30.33 in 10.0 mi SSE 6.9 mph - N/A   Overcast
9:52 PM 34.0 °F 26.6 °F 10.0 °F 37% 30.34 in 10.0 mi SE 9.2 mph - N/A   Overcast
10:52 PM 33.1 °F 26.1 °F 10.9 °F 40% 30.33 in 10.0 mi ESE 8.1 mph - N/A   Overcast
11:52 PM 32.0 °F 25.6 °F 12.0 °F 44% 30.33 in 10.0 mi ESE 6.9 mph - N/A   Overcast